Yankton, SD

7:44 PM CDT on August 28, 2016 (GMT -0500)
Gurney Municipal

Weather History for KYKN - November, 2012

Change the Weather History Date:

Monday, November 19, 2012

  Actual Average Record
Temperature  
Mean Temperature 45 °F -  
Max Temperature 55 °F 43 °F 70 °F (1950)
Min Temperature 35 °F 23 °F 8 °F (1969)
Degree Days  
Heating Degree Days 20    
Moisture  
Dew Point 35 °F    
Average Humidity 69    
Maximum Humidity 87    
Minimum Humidity 51    
Precipitation  
Precipitation 0.00 in - - ()
Sea Level Pressure  
Sea Level Pressure 30.03 in    
Wind  
Wind Speed 10 mph (West)    
Max Wind Speed 22 mph    
Max Gust Speed 26 mph    
Visibility 10 miles    
Events      
Averages and records for this station are not official NWS values.
T = Trace of Precipitation, MM = Missing Value Source: NWS Daily Summary

Daily Weather History Graph

Daily Weather History Graph

Search for Another Location

Airport or City:

Trip Planner

Search our weather history database for the weather conditions in past years. The results will help you decide how hot, cold, wet, or windy it might be!

Date:

Astronomy

Nov. 19, 2012 Rise Set
Actual Time 7:27 AM CST 5:02 PM CST
Civil Twilight 6:56 AM CST 5:33 PM CST
Nautical Twilight 6:21 AM CST 6:07 PM CST
Astronomical Twilight 5:48 AM CST 6:41 PM CST
Moon 12:27 PM CST (11/19) 11:35 PM CST (11/19)
Length of Visible Light 10h 36m
Length of Day
9h 34m
Waxing Crescent, 41% of the Moon is Illuminated
Nov 19
Waxing Crescent
Nov 20
First Quarter
Nov 28
Full
Dec 6
Last Quarter
Dec 13
New

Hourly Weather History & Observations

Time (CST) Temp. Windchill Dew Point Humidity Pressure Visibility Wind Dir Wind Speed Gust Speed Precip Events Conditions
12:15 AM 46.4 °F 41.5 °F 35.6 °F 66% 29.96 in 10.0 mi SSE 10.4 mph - N/A   Clear
12:35 AM 46.4 °F 41.5 °F 35.6 °F 66% 29.96 in 10.0 mi SSE 10.4 mph - N/A   Clear
12:55 AM 44.6 °F 39.2 °F 35.6 °F 71% 29.96 in 10.0 mi SSE 10.4 mph - N/A   Clear
1:15 AM 44.6 °F 40.2 °F 35.6 °F 71% 29.95 in 10.0 mi SSE 8.1 mph - N/A   Clear
1:35 AM 44.6 °F 40.7 °F 35.6 °F 71% 29.95 in 10.0 mi SSE 6.9 mph - N/A   Clear
1:55 AM 42.8 °F 38.0 °F 35.6 °F 76% 29.94 in 10.0 mi SSE 8.1 mph - N/A   Clear
2:15 AM 42.8 °F 38.0 °F 33.8 °F 70% 29.94 in 10.0 mi SE 8.1 mph - N/A   Clear
2:35 AM 42.8 °F 39.3 °F 33.8 °F 70% 29.94 in 10.0 mi SE 5.8 mph - N/A   Clear
2:55 AM 42.8 °F 38.6 °F 33.8 °F 70% 29.94 in 10.0 mi SE 6.9 mph - N/A   Clear
3:15 AM 42.8 °F 38.6 °F 35.6 °F 76% 29.94 in 10.0 mi SE 6.9 mph - N/A   Clear
3:35 AM 41.0 °F 38.0 °F 33.8 °F 76% 29.94 in 10.0 mi SE 4.6 mph - N/A   Clear
3:55 AM 42.8 °F 39.3 °F 35.6 °F 76% 29.94 in 10.0 mi South 5.8 mph - N/A   Clear
4:15 AM 41.0 °F 35.2 °F 33.8 °F 76% 29.94 in 10.0 mi SSE 9.2 mph - N/A   Clear
4:35 AM 41.0 °F 36.4 °F 35.6 °F 81% 29.93 in 10.0 mi South 6.9 mph - N/A   Clear
4:55 AM 39.2 °F 35.0 °F 33.8 °F 81% 29.94 in 10.0 mi South 5.8 mph - N/A   Clear
5:15 AM 41.0 °F 37.1 °F 33.8 °F 76% 29.94 in 10.0 mi South 5.8 mph - N/A   Clear
5:35 AM 41.0 °F 36.4 °F 33.8 °F 76% 29.94 in 10.0 mi SSE 6.9 mph - N/A   Clear
5:55 AM 39.2 °F 35.0 °F 33.8 °F 81% 29.94 in 10.0 mi South 5.8 mph - N/A   Clear
6:15 AM 39.2 °F 37.0 °F 33.8 °F 81% 29.95 in 10.0 mi SSW 3.5 mph - N/A   Clear
6:35 AM 39.2 °F 35.9 °F 33.8 °F 81% 29.95 in 10.0 mi South 4.6 mph - N/A   Clear
6:55 AM 39.2 °F 35.9 °F 33.8 °F 81% 29.95 in 10.0 mi South 4.6 mph - N/A   Clear
7:35 AM 35.6 °F - 32.0 °F 87% 29.96 in 10.0 mi Calm Calm - N/A   Clear
7:55 AM 37.4 °F 32.1 °F 33.8 °F 87% 29.97 in 10.0 mi WSW 6.9 mph - N/A   Clear
8:15 AM 39.2 °F 32.0 °F 35.6 °F 87% 29.98 in 10.0 mi West 11.5 mph - N/A   Clear
8:35 AM 41.0 °F 33.5 °F 35.6 °F 81% 29.99 in 10.0 mi West 13.8 mph - N/A   Clear
8:55 AM 41.0 °F 33.5 °F 35.6 °F 81% 29.99 in 10.0 mi West 13.8 mph - N/A   Clear
9:15 AM 42.8 °F 35.1 °F 35.6 °F 76% 30.00 in 10.0 mi WNW 16.1 mph 20.7 mph N/A   Clear
9:35 AM 42.8 °F 34.8 °F 35.6 °F 76% 30.00 in 10.0 mi WNW 17.3 mph 26.5 mph N/A   Clear
9:55 AM 44.6 °F 36.9 °F 37.4 °F 76% 30.02 in 10.0 mi WNW 18.4 mph 21.9 mph N/A   Clear
10:15 AM 44.6 °F 37.8 °F 37.4 °F 76% 30.03 in 10.0 mi WNW 15.0 mph - N/A   Clear
10:35 AM 46.4 °F 39.5 °F 37.4 °F 71% 30.03 in 10.0 mi WNW 17.3 mph 20.7 mph N/A   Clear
10:55 AM 46.4 °F 39.5 °F 37.4 °F 71% 30.04 in 10.0 mi WNW 17.3 mph - N/A   Clear
11:15 AM 46.4 °F 38.7 °F 37.4 °F 71% 30.04 in 10.0 mi WNW 20.7 mph 24.2 mph N/A   Clear
11:35 AM 48.2 °F - 37.4 °F 66% 30.04 in 10.0 mi West 16.1 mph - N/A   Clear
11:55 AM 48.2 °F - 37.4 °F 66% 30.04 in 10.0 mi WNW 17.3 mph 25.3 mph N/A   Clear
12:15 PM 51.8 °F - 37.4 °F 58% 30.04 in 10.0 mi WNW 19.6 mph 23.0 mph N/A   Clear
12:35 PM 53.6 °F - 37.4 °F 54% 30.04 in 10.0 mi NW 20.7 mph 25.3 mph N/A   Clear
12:55 PM 53.6 °F - 37.4 °F 54% 30.04 in 10.0 mi WNW 18.4 mph - N/A   Clear
1:15 PM 53.6 °F - 37.4 °F 54% 30.04 in 10.0 mi WNW 20.7 mph 24.2 mph N/A   Clear
1:35 PM 53.6 °F - 37.4 °F 54% 30.04 in 10.0 mi NW 18.4 mph 24.2 mph N/A   Clear
1:55 PM 55.4 °F - 37.4 °F 51% 30.04 in 10.0 mi NW 19.6 mph 24.2 mph N/A   Clear
2:15 PM 55.4 °F - 37.4 °F 51% 30.04 in 10.0 mi NW 21.9 mph - N/A   Clear
2:35 PM 55.4 °F - 37.4 °F 51% 30.04 in 10.0 mi WNW 16.1 mph - N/A   Clear
2:55 PM 55.4 °F - 37.4 °F 51% 30.04 in 10.0 mi NW 15.0 mph - N/A   Clear
3:15 PM 55.4 °F - 37.4 °F 51% 30.05 in 10.0 mi WNW 15.0 mph - N/A   Clear
3:35 PM 55.4 °F - 37.4 °F 51% 30.05 in 10.0 mi NW 16.1 mph - N/A   Clear
3:55 PM 55.4 °F - 37.4 °F 51% 30.06 in 10.0 mi NW 12.7 mph - N/A   Clear
4:15 PM 53.6 °F - 35.6 °F 51% 30.07 in 10.0 mi NW 10.4 mph - N/A   Clear
4:35 PM 51.8 °F - 35.6 °F 54% 30.07 in 10.0 mi NW 9.2 mph - N/A   Clear
4:55 PM 51.8 °F - 35.6 °F 54% 30.08 in 10.0 mi NW 6.9 mph - N/A   Clear
5:15 PM 50.0 °F - 35.6 °F 58% 30.08 in 10.0 mi WNW 5.8 mph - N/A   Clear
5:35 PM 50.0 °F - 35.6 °F 58% 30.08 in 10.0 mi WNW 6.9 mph - N/A   Clear
5:55 PM 48.2 °F - 33.8 °F 58% 30.10 in 10.0 mi WNW 9.2 mph - N/A   Clear
6:15 PM 46.4 °F 41.9 °F 33.8 °F 62% 30.10 in 10.0 mi WNW 9.2 mph - N/A   Clear
6:35 PM 44.6 °F 40.7 °F 33.8 °F 66% 30.11 in 10.0 mi West 6.9 mph - N/A   Clear
6:55 PM 44.6 °F 39.7 °F 33.8 °F 66% 30.13 in 10.0 mi WNW 9.2 mph - N/A   Clear
7:15 PM 41.0 °F 36.4 °F 32.0 °F 70% 30.13 in 10.0 mi WNW 6.9 mph - N/A   Clear
7:35 PM 44.6 °F 40.2 °F 33.8 °F 66% 30.13 in 10.0 mi WNW 8.1 mph - N/A   Clear
7:55 PM 41.0 °F 34.7 °F 30.2 °F 65% 30.14 in 10.0 mi WNW 10.4 mph - N/A   Clear
8:15 PM 39.2 °F 32.0 °F 30.2 °F 70% 30.13 in 10.0 mi NW 11.5 mph - N/A   Clear
8:35 PM 39.2 °F 32.0 °F 32.0 °F 75% 30.14 in 10.0 mi WNW 11.5 mph - N/A   Clear
9:15 PM 39.2 °F 32.0 °F 30.2 °F 70% 30.14 in 10.0 mi WNW 11.5 mph - N/A   Clear
9:35 PM 37.4 °F 30.3 °F 30.2 °F 75% 30.14 in 10.0 mi WNW 10.4 mph - N/A   Clear
9:55 PM 37.4 °F 32.8 °F 30.2 °F 75% 30.15 in 10.0 mi WNW 5.8 mph - N/A   Clear
10:15 PM 37.4 °F 29.8 °F 30.2 °F 75% 30.15 in 10.0 mi WNW 11.5 mph - N/A   Clear
10:35 PM 37.4 °F 29.3 °F 30.2 °F 75% 30.15 in 10.0 mi WNW 12.7 mph - N/A   Clear
10:55 PM 37.4 °F 29.8 °F 30.2 °F 75% 30.16 in 10.0 mi NW 11.5 mph - N/A   Clear
11:15 PM 35.6 °F 27.5 °F 30.2 °F 81% 30.15 in 10.0 mi NW 11.5 mph - N/A   Clear
11:35 PM 35.6 °F 28.0 °F 28.4 °F 75% 30.16 in 10.0 mi NW 10.4 mph - N/A   Clear
11:55 PM 35.6 °F 27.1 °F 30.2 °F 81% 30.17 in 10.0 mi WNW 12.7 mph - N/A   Clear